Location: Poughquag
(41.6090°N, 73.6820°W)
Time: 12:20:51
(UTC-04:00)

Vanguard 1 - Pass Details

Date: 01 June 2020
Orbit: 650 x 3833 km, 34.2° (Epoch: 07 July)

Event Time Altitude Azimuth Distance (km) Brightness Sun altitude
Rises 06:06:43 0° 234° (SW) 5,776 13.3 6.5°
Reaches altitude 10° 06:09:59 10° 230° (SW) 5,118 13.1 7.0°
Maximum altitude 06:26:07 59° 156° (SSE) 3,788 13.2 9.8°
Drops below altitude 10° 06:48:47 10° 86° (E) 6,905 16.5 13.8°
Sets 06:54:04 0° 83° (E) 7,812 16.4 14.8°
